Tulsa International Airport Airport (TUL)

 

Airport Diagram
Current Weather/Forecast (VFR Conditions)
METAR KTUL 281753Z 15011KT 10SM FEW250 31/17 A2989 RMK AO2 SLP111 T03110172 10311 20189 58010
TAF KTUL 281728Z 2818/2918 15009KT P6SM SCT060 SCT250 FM290000 16008KT P6SM BKN100 PROB30 2912/2918 5SM -TSRA BR BKN040CB

All Charts
General
Chart Name Download
AIRPORT DIAGRAM
TAKEOFF MINIMUMS
ALTERNATE MINIMUMS
RADAR MINIMUMS

Departures
Chart Name Download
TULSA EIGHT

Arrivals
Chart Name Download
VINTA TWO

Approaches
Chart Name Download
ILS OR LOC RWY 18L
ILS OR LOC RWY 18R
ILS OR LOC RWY 36R
ILS RWY 36R (SA CAT I)
ILS RWY 36R (CAT II)
RNAV (GPS) RWY 08
RNAV (GPS) RWY 18L
RNAV (GPS) RWY 18R
RNAV (GPS) RWY 26
RNAV (GPS) RWY 36L
RNAV (GPS) RWY 36R
VOR/DME RWY 08
HI-VOR/DME OR TACAN RWY 26
VOR OR TACAN RWY 26